Location: East Irvine
(33.6759°N, 117.7598°W)
Time: 01:51:37
(UTC+00:00)

Cosmos 2278 Rocket - Pass Details

Date: 15 November 2025
Orbit: 841 x 843 km, 71.0° (Epoch: 07 December)

Event Time Altitude Azimuth Distance (km) Brightness Sun altitude
Rises 03:01:35 0° 239° (WSW) 3,386 6.3 -27.7°
Reaches altitude 10° 03:04:42 10° 256° (WSW) 2,455 5.5 -28.4°
Maximum altitude 03:08:42 20° 302° (WNW) 1,865 4.5 -29.2°
Drops below altitude 10° 03:12:45 10° 348° (NNW) 2,463 4.7 -30.0°
Enters shadow 03:14:16 - 358° (N) 2,891 5.0 -30.4°
